WT9M-8 Weather Reports


Display with metric or nautical units.
time (UTC)temp
F
wind
direction
speed
MPH
gust
MPH
rain 1hr
in
rain 24hr
in
rain mn
in
humidity
%
barometer
mb
20260506001035 51 261 2.0 6.0 0.00 0.00 0.00 44 1009.4
20260506000033 51 253 2.0 7.0 0.00 0.00 0.00 43 1009.4
20260505235028 52 258 2.0 4.0 0.00 0.00 0.00 43 1009.3
20260505234025 52 266 2.0 3.0 0.00 0.00 0.00 42 1009.3
20260505233023 53 272 3.0 10.0 0.00 0.00 0.00 41 1009.3
20260505222035 57 276 4.0 8.0 0.00 0.00 0.00 37 1009.3
20260505221052 58 259 6.0 21.0 0.00 0.00 0.00 36 1009.1
20260505220028 59 246 5.0 10.0 0.00 0.00 0.00 37 1009.3
20260505215025 58 260 5.0 11.0 0.00 0.00 0.00 38 1009.2
20260505214022 57 247 4.0 8.0 0.00 0.00 0.00 38 1009.3
20260505213018 57 253 4.0 8.0 0.00 0.00 0.00 37 1009.2
20260505212035 59 244 6.0 15.0 0.00 0.00 0.00 35 1009.2
20260505211031 61 254 5.0 15.0 0.00 0.00 0.00 35 1009.4
20260505210028 63 251 5.0 10.0 0.00 0.00 0.00 35 1009.3
20260505205025 64 235 6.0 14.0 0.00 0.00 0.00 36 1009.5
20260505204043 64 246 7.0 14.0 0.00 0.00 0.00 35 1009.5
20260505203018 63 242 8.0 18.0 0.00 0.00 0.00 36 1009.6
20260505202035 62 251 8.0 15.0 0.00 0.00 0.00 36 1009.7
20260505201033 58 253 8.0 18.0 0.00 0.00 0.00 39 1009.8
20260505200028 56 239 6.0 17.0 0.00 0.00 0.00 40 1009.8
20260505195024 56 243 5.0 14.0 0.00 0.00 0.00 39 1009.7
20260505194021 58 251 6.0 15.0 0.00 0.00 0.00 37 1009.7
20260505193018 58 274 5.0 14.0 0.00 0.00 0.00 36 1009.9
20260505192054 60 257 6.0 15.0 0.00 0.00 0.00 37 1009.9
20260505191031 60 248 6.0 14.0 0.00 0.00 0.00 39 1009.8
20260505190029 59 234 6.0 13.0 0.00 0.00 0.00 38 1010.0
20260505185044 60 265 7.0 16.0 0.00 0.00 0.00 35 1010.0
20260505184021 61 261 6.0 15.0 0.00 0.00 0.00 35 1009.9
20260505183018 59 253 5.0 13.0 0.00 0.00 0.00 37 1009.8
20260505182034 60 288 7.0 15.0 0.00 0.00 0.00 35 1009.7
20260505181031 60 247 5.0 9.0 0.00 0.00 0.00 37 1009.4
20260505180028 60 261 7.0 15.0 0.00 0.00 0.00 36 1009.4
20260505175025 60 275 7.0 14.0 0.00 0.00 0.00 36 1009.4
20260505174020 61 230 6.0 11.0 0.00 0.00 0.00 37 1009.4
20260505173017 62 228 8.0 17.0 0.00 0.00 0.00 38 1009.4
20260505172034 61 222 5.0 11.0 0.00 0.00 0.00 39 1009.4
20260505171110 60 248 6.0 14.0 0.00 0.00 0.00 39 1009.6
20260505170027 59 236 4.0 8.0 0.00 0.00 0.00 38 1009.7
20260505165044 59 227 6.0 18.0 0.00 0.00 0.00 38 1009.7
20260505164100 58 246 5.0 13.0 0.00 0.00 0.00 36 1009.7
20260505163017 59 271 6.0 15.0 0.00 0.00 0.00 36 1009.7
20260505162036 60 267 5.0 14.0 0.00 0.00 0.00 37 1009.7
20260505161031 58 259 5.0 11.0 0.00 0.00 0.00 37 1009.6
20260505153019 57 247 4.0 10.0 0.00 0.00 0.00 41 1009.2
20260505152114 56 270 6.0 13.0 0.00 0.00 0.00 41 1009.3
20260505151032 56 261 5.0 11.0 0.00 0.00 0.00 42 1009.3
20260505125025 47 270 2.0 7.0 0.00 0.00 0.00 73 1009.1
20260505124021 46 247 1.0 6.0 0.00 0.00 0.00 78 1009.0
20260505123037 43 228 2.0 4.0 0.00 0.00 0.00 82 1008.9
20260505122033 39 70 1.0 1.0 0.00 0.00 0.00 84 1008.8
20260505121030 35 71 2.0 2.0 0.00 0.00 0.00 86 1008.5
20260505120027 32 74 2.0 3.0 0.00 0.00 0.00 84 1008.2
20260505115024 31 75 2.0 3.0 0.00 0.00 0.00 83 1008.0
20260505114020 30 0.0 0.0 0.00 0.00 0.00 81 1007.6
20260505113017 30 0.0 0.0 0.00 0.00 0.00 80 1007.2
20260505112034 30 0.0 0.0 0.00 0.00 0.00 80 1007.0
20260505111052 31 0.0 0.0 0.00 0.00 0.00 80 1007.1
20260505102035 32 74 2.0 3.0 0.00 0.00 0.00 79 1007.0
20260505101030 33 77 2.0 2.0 0.00 0.00 0.00 78 1007.0
20260505100027 33 74 2.0 3.0 0.00 0.00 0.00 78 1007.0
20260505095025 34 85 2.0 2.0 0.00 0.00 0.00 77 1006.9
20260505094020 34 79 2.0 3.0 0.00 0.00 0.00 74 1006.6
20260505093017 35 88 1.0 2.0 0.00 0.00 0.00 73 1006.5
20260505092033 36 74 2.0 3.0 0.00 0.00 0.00 73 1006.4
20260505091030 37 75 2.0 2.0 0.00 0.00 0.00 71 1006.4
20260505090027 37 80 2.0 3.0 0.00 0.00 0.00 70 1006.1
20260505085024 38 87 2.0 2.0 0.00 0.00 0.00 71 1006.0
20260505084021 38 84 2.0 3.0 0.00 0.00 0.00 70 1005.9
20260505083037 38 77 2.0 3.0 0.00 0.00 0.00 68 1005.8
20260505082055 38 91 1.0 2.0 0.00 0.00 0.00 64 1005.6
20260505081032 39 82 1.0 2.0 0.00 0.00 0.00 64 1005.3
20260505080027 40 84 1.0 2.0 0.00 0.00 0.00 62 1005.1
20260505075024 40 73 1.0 2.0 0.00 0.00 0.00 60 1005.1
20260505074021 41 0.0 0.0 0.00 0.00 0.00 58 1005.0
20260505073017 42 0.0 0.0 0.00 0.00 0.00 57 1005.0
20260505072034 43 210 0.0 1.0 0.00 0.00 0.00 56 1005.1
20260505071032 44 212 1.0 2.0 0.00 0.00 0.00 55 1005.2
20260505070047 45 240 1.0 3.0 0.00 0.00 0.00 53 1005.2
20260505065023 45 254 1.0 4.0 0.00 0.00 0.00 53 1005.3
20260505064020 46 219 1.0 2.0 0.00 0.00 0.00 52 1005.4
20260505063037 46 268 3.0 9.0 0.00 0.00 0.00 52 1005.4
20260505062054 47 252 3.0 8.0 0.00 0.00 0.00 51 1005.3
20260505061049 47 270 4.0 11.0 0.00 0.00 0.00 51 1005.3
20260505060026 48 258 4.0 11.0 0.00 0.00 0.00 51 1005.4
20260505055023 48 245 3.0 8.0 0.00 0.00 0.00 51 1005.1
20260505054019 49 265 3.0 9.0 0.00 0.00 0.00 50 1005.0
20260505053016 50 244 5.0 11.0 0.00 0.00 0.00 49 1004.8
20260505052033 50 264 5.0 10.0 0.00 0.00 0.00 50 1004.7
20260505051030 50 249 3.0 7.0 0.00 0.00 0.00 50 1004.4
20260505041023 52 276 5.0 11.0 0.00 0.00 0.00 50 1003.8
20260505040021 52 268 3.0 9.0 0.00 0.00 0.00 49 1003.5
20260505035018 53 267 4.0 11.0 0.00 0.00 0.00 49 1003.4
20260505034034 53 262 5.0 15.0 0.00 0.00 0.00 49 1003.1
20260505033030 54 261 4.0 14.0 0.00 0.00 0.00 48 1002.9
20260505030031 54 278 5.0 14.0 0.00 0.00 0.00 47 1002.6
20260505025028 55 255 3.0 7.0 0.00 0.00 0.00 46 1002.3
20260505024024 55 263 4.0 8.0 0.00 0.00 0.00 46 1002.0
20260505023041 56 263 4.0 9.0 0.00 0.00 0.00 45 1001.8
20260505022059 56 251 4.0 13.0 0.00 0.00 0.00 45 1001.6
20260505021034 56 271 4.0 11.0 0.00 0.00 0.00 44 1001.1
20260505020031 56 258 4.0 8.0 0.00 0.00 0.00 44 1000.9
20260505015108 56 256 4.0 15.0 0.00 0.00 0.00 43 1000.7
20260505014024 57 266 3.0 6.0 0.00 0.00 0.00 42 1000.4
20260505013021 58 266 3.0 10.0 0.00 0.00 0.00 42 1000.2
20260505012037 58 263 5.0 19.0 0.00 0.00 0.00 42 1000.0
20260505011035 58 265 4.0 8.0 0.00 0.00 0.00 41 1000.2
20260505010031 59 256 4.0 9.0 0.00 0.00 0.00 40 1000.3
20260505005028 60 245 6.0 17.0 0.00 0.00 0.00 39 1000.5
20260505004024 61 260 6.0 16.0 0.00 0.00 0.00 37 1000.4
20260505003021 61 261 5.0 16.0 0.00 0.00 0.00 36 1000.2
20260505002017 61 268 7.0 18.0 0.00 0.00 0.00 37 1000.1